This demonstration page uses our WeatherBlox Daily Observations layout. Learn more.

Left ArrowRight Arrow

38.20091, -84.87328

Hourly Observations for August 20, 2016

Temp ( °F °C ) Dew Point ( °F °C ) Humidity (%) Winds ( mph kmh ) Pressure ( in mb ) Visibility ( mi km ) Precip ( " mm )
12:53 am 00:53 Clear 73 22.8 69 20.6 87 87 S 3 6 29.92 1013 10 16 0.00 0.00
1:53 am 01:53 Clear 72 22.2 68 20 87 87 SSW 5 7 29.91 1013 10 16 0.00 0.00
2:53 am 02:53 Clear 71 21.7 68 20 90 90 SSW 3 6 29.91 1013 10 16 0.00 0.00
3:53 am 03:53 Clear 71 21.7 68 20 90 90 Calm 29.90 1013 10 16 0.00 0.00
4:53 am 04:53 Clear 70 21.1 67 19.4 90 90 Calm 29.88 1012 10 16 0.00 0.00
5:53 am 05:53 Clear 70 21.1 67 19.4 90 90 SSW 3 6 29.88 1012 10 16 0.00 0.00
6:53 am 06:53 Mostly Cloudy 71 21.7 68 20 90 90 S 5 7 29.88 1012 10 16 0.00 0.00
7:00 am 07:00 Mostly Sunny 71 21.7 67 19.4 87 87 S 3 6 29.88 1012 10 16 0.00 0.00
7:53 am 07:53 Partly Cloudy 72 22.2 68 20 87 87 SSE 7 11 29.86 1011 10 16 0.00 0.00
8:14 am 08:14 Cloudy 73 22.8 69 20.6 87 87 SSE 7 11 29.85 1011 10 16 0.00 0.00
8:53 am 08:53 Mostly Cloudy 74 23.3 70 21.1 88 88 SSE 8 13 29.85 1011 10 16 0.00 0.00
9:29 am 09:29 Cloudy 75 23.9 70 21.1 84 84 VRB 7 11 29.85 1011 10 16 0.00 0.00
9:53 am 09:53 Cloudy with Light Rain 74 23.3 70 21.1 88 88 S 6 9 29.85 1011 6 10 0.02 0.51
10:53 am 10:53 Cloudy 75 23.9 71 21.7 88 88 S 9 15 29.84 1010 10 16 0.00 0.03
11:50 am 11:50 Cloudy 79 26 72 22 79 79 SSW 8 13 29.83 1010 10 16 0.00 0.00
11:53 am 11:53 Cloudy 78 25.6 72 22.2 82 82 SSW 10 17 29.83 1010 10 16 0.00 0.00
12:03 pm 12:03 Cloudy 77 25 71 21.7 82 82 SSW 10 17 29.83 1010 10 16 0.00 0.00
12:17 pm 12:17 Cloudy 79 26.1 73 22.8 82 82 S 9 15 29.83 1010 10 16 0.00 0.00
12:24 pm 12:24 Cloudy 80 26.7 73 22.8 79 79 S 10 17 29.80 1009 10 16 0.00 0.00
12:53 pm 12:53 Cloudy 79 26.1 72 22.2 79 79 S 13 20 29.81 1009 10 16 0.00 0.00
1:30 pm 13:30 Cloudy with Heavy Rain 78 25.6 72 22.2 82 82 SSW 12 19 29.80 1009 2 3 0.07 1.78
1:37 pm 13:37 Mostly Cloudy with Light Rain 80 26.7 74 23.3 82 82 SW 12 19 29.80 1009 2 3 0.07 1.78
1:44 pm 13:44 Partly Cloudy 81 27.2 74 23.3 79 79 SSW 14 22 29.77 1008 10 16 0.07 1.78
1:53 pm 13:53 Mostly Sunny 82 27.8 74 23.3 77 77 SSW 12 19 29.78 1009 10 16 0.07 1.78
2:48 pm 14:48 Mostly Cloudy 79 26 72 22 79 79 S 10 17 29.77 1008 10 16 0.00 0.00
2:53 pm 14:53 Mostly Cloudy 82 27.8 72 22.2 72 72 S 15 24 29.77 1008 10 16 0.00 0.00
3:12 pm 15:12 Mostly Cloudy 82 27.8 73 22.8 74 74 S 12 19 29.74 1007 10 16 0.00 0.00
3:53 pm 15:53 Mostly Cloudy 79 26.1 72 22.2 79 79 S 7 11 29.75 1007 10 16 0.00 0.00
4:10 pm 16:10 Mostly Cloudy with Light Rain 78 25.6 73 22.8 85 85 SW 7 11 29.74 1007 2 3 0.06 1.52
4:13 pm 16:13 Mostly Cloudy with Thunderstorms 78 25.6 73 22.8 85 85 SW 7 11 29.74 1007 3 5 0.06 1.52
4:31 pm 16:31 Cloudy with Thunderstorms 76 24.4 72 22.2 88 88 W 7 11 29.74 1007 1 2 0.16 4.06
4:34 pm 16:34 Cloudy with Strong Thunderstorms 75 23.9 71 21.7 88 88 W 7 11 29.77 1008 1 1 0.23 5.84
4:38 pm 16:38 Cloudy with Nearby Thunderstorms 75 23.9 71 21.7 88 88 W 7 11 29.77 1008 1 1 0.32 8.13
4:45 pm 16:45 Cloudy with Nearby Thunderstorms 75 23.9 71 21.7 88 88 SW 7 11 29.77 1008 1 2 0.34 8.64
4:53 pm 16:53 Cloudy with Nearby Thunderstorms 75 23.9 71 21.7 88 88 SW 12 19 29.77 1008 2 3 0.38 9.65
4:59 pm 16:59 Cloudy with Nearby Thunderstorms 75 23.9 71 21.7 88 88 S 12 19 29.77 1008 3 5 0.01 0.25
5:22 pm 17:22 Cloudy with Light Rain 74 23.3 70 21.1 88 88 SSW 10 17 29.74 1007 10 16 0.03 0.76
5:53 pm 17:53 Mostly Cloudy with Light Rain 75 23.9 71 21.7 88 88 S 9 15 29.74 1007 10 16 0.04 1.02
6:53 pm 18:53 Mostly Sunny 77 25 72 22.2 85 85 SSW 10 17 29.74 1007 10 16 0.00 0.03
7:53 pm 19:53 Cloudy 76 24.4 71 21.7 85 85 SSW 16 26 29.73 1007 10 16 0.00 0.00
8:35 pm 20:35 Cloudy 75 23.9 70 21.1 84 84 SW 10 17 29.74 1007 10 16 0.00 0.00
8:53 pm 20:53 Mostly Cloudy 74 23.3 70 21.1 88 88 SSW 10 17 29.76 1008 10 16 0.00 0.00
9:25 pm 21:25 Cloudy 74 23.3 71 21.7 91 91 SW 10 17 29.77 1008 10 16 0.00 0.00
9:53 pm 21:53 Mostly Cloudy 74 23.3 71 21.7 91 91 WSW 5 7 29.78 1008 10 16 0.00 0.00
10:13 pm 22:13 Cloudy with Light Rain 74 23.3 68 20 82 82 W 8 13 29.77 1008 10 16 0.00 0.03
10:53 pm 22:53 Mostly Clear 71 21.7 68 20 90 90 SW 6 9 29.77 1008 10 16 0.02 0.51
11:53 pm 23:53 Mostly Clear 71 21.7 68 20 90 90 SW 6 9 29.77 1008 10 16 0.00 0.00

Powered by AerisWeather